Other Public Products
Issued by NWS Grand Forks, ND

Home | Current Version | Previous Version | Graphics & Text | Print | Product List | Glossary On
Versions: 1 2 3 4 5 6 7 8 9 10 11 12 13 14 15 16 17 18 19 20 21 22 23 24 25 26 27 28 29 30 31 32 33 34 35 36 37 38 39 40 41 42 43 44 45 46 47 48 49 50
000
FPUS83 KFGF 230431
OPUFGF
PRAIRIE TO PINES WEATHER ROUNDUP
NATIONAL WEATHER SERVICE EASTERN NORTH DAKOTA/GRAND FORKS ND
1100 PM CDT TUE APR 22 2014

 **SATELLITE DATA USED TO AUGMENT SKY COVER AT AUTOMATED STATIONS**
 *****  WEATHER ACROSS EASTERN NORTH DAKOTA  *****

CITY           SKY/WX    TMP DP  RH WIND       PRES   REMARKS
GRAND FORKS    PTCLDY    50  30  46 E16       29.98S
GRAND FORKS AF PTCLDY    48  33  55 E10       29.98S
GRAND CITY NWS   N/A     46 N/A N/A E20         N/A
BUXTON           N/A     48  35  60 E10         N/A
DEVILS LAKE    MOCLDY    46  32  57 SE14      29.92S
FARGO          PTCLDY    51  32  48 E12       29.97S
WAHPETON ARPT  PTCLDY    48  32  53 SE10G16   29.98F
$$

 *****  WEATHER ACROSS CENTRAL AND WESTERN NORTH DAKOTA  *****

CITY           SKY/WX    TMP DP  RH WIND       PRES   REMARKS
JAMESTOWN      PTCLDY    49  34  56 E16       29.88F
BISMARCK       MOCLDY    57  33  40 E23G30    29.74F
MINOT          PTCLDY    51  33  50 E16       29.79S
MINOT AFB      MOCLDY    49  35  58 SE18      29.79S
GARRISON         N/A     52  34  50 E18G26    29.76S
WILLISTON      MOCLDY    59  31  34 E17G28    29.65S
DICKINSON      MOCLDY    54  29  38 E25G33    29.61F
HETTINGER      CLOUDY    53  31  42 E18G29    29.60F
$$

 *****  OTHER OBSERVATIONS NORTHEAST NORTH DAKOTA  *****

CITY           SKY/WX    TMP DP  RH WIND       PRES   REMARKS
WALHALLA       FAIR      43  36  75 SE8       29.99S
LANGDON        FAIR      45  32  61 SE15      29.96S
CAVALIER       FAIR      41  36  81 E10       29.99S
GRAFTON        FAIR      45  34  65 SE10      29.98S
CANDO          FAIR      45  34  65 E15       29.92S
FORT TOTTEN      N/A     49  29  45 SE12      29.95
ROLLA          FAIR      45  34  65 SE15      29.92F
RUGBY          FAIR      46  32  57 SE17G23   29.86F
 ***** THE ABOVE OBSERVATIONS ARE NON NWS ARE NOT QUALITY
        CONTROLLED AND MAY MIS-REPORT RAIN FOR SNOW...
$$

 *****  OTHER OBSERVATIONS SOUTHEAST NORTH DAKOTA *****

CITY           SKY/WX    TMP DP  RH WIND       PRES   REMARKS
COOPERSTOWN    FAIR      46  32  57 SE15      29.93F
VALLEY CITY    MOCLDY    48  32  53 SE14G20   29.93S
OAKES          FAIR      50  36  57 E18       29.90F
GWINNER        CLEAR     52  34  50 E15       29.94F
SHEYENNE NWR     N/A     46  33  59 SE7       29.95
BUFFALO        NOT AVBL
WYNDMERE       NOT AVBL
 ***** THE ABOVE OBSERVATIONS ARE NON NWS ARE NOT QUALITY
       CONTROLLED AND MAY MIS-REPORT RAIN FOR SNOW...
$$

  *****  WEATHER ACROSS NORTHERN MINNESOTA  *****

CITY           SKY/WX    TMP DP  RH WIND       PRES   REMARKS
FLAG ISLAND    CLEAR     30  23  74 CALM      30.06S
WARROAD        CLEAR     37  27  65 E7        30.06F
ROSEAU         CLEAR     41  25  52 E8        30.05S
HALLOCK        CLOUDY    43  30  61 E13       30.00F
THF RVR FALLS  CLEAR     43  25  49 E10       30.02F
HALSTAD          N/A     42  25  50 E10         N/A
FOSSTON        PTCLDY    37  25  60 E7        30.03S
BAUDETTE       CLEAR     36  25  64 E5        30.07R
WASKISH        CLEAR     32  27  80 E5        30.07S
CROOKSTON      PTCLDY    46  28  49 SE12      30.01S
$$
  *****  WEATHER ACROSS CENTRAL AND WEST MINNESOTA  *****

CITY           SKY/WX    TMP DP  RH WIND       PRES   REMARKS
BEMIDJI        PTCLDY    32  22  64 E3        30.04F
PARK RAPIDS    PTCLDY    44  24  45 SE6       30.03S
WADENA         PTCLDY    43  27  52 E5        30.04S
DETROIT LAKES  PTCLDY    46  28  49 SE12      30.03R
MOORHEAD       PTCLDY    50  32  50 SE8       29.99S
FERGUS FALLS   PTCLDY    50  27  40 SE8       29.97S
ELBOW LAKE     FAIR      48  33  56 SE8       30.00S
MORRIS MN      MOCLDY    52  34  50 SE14      29.99F
STAPLES        PTCLDY    43  23  45 E3        30.05S
WHEATON        CLOUDY    52  37  58 E13       30.00S
$$
  *****  WEATHER ELSEWHERE ACROSS MINNESOTA  *****

CITY           SKY/WX    TMP DP  RH WIND       PRES   REMARKS
DULUTH         CLEAR     38  20  48 CALM      30.08R
INTRNTL FALLS  CLEAR     29  23  78 CALM      30.07S
ELY            CLEAR     28  21  74 CALM      30.09S
CLOQUET        CLEAR     32  21  64 CALM      30.08F
BRAINERD       CLEAR     41  27  57 CALM      30.06F
HIBBING        CLEAR     29  22  75 CALM      30.08R
ALEXANDRIA     PTCLDY    48  28  46 E13       30.03S
SAINT CLOUD    PTCLDY    47  26  44 E5        30.06S
MINNEAPOLIS    MOCLDY    48  24  39 E7        30.08S
$$

  *****  WEATHER ACROSS SOUTH DAKOTA  *****

CITY           SKY/WX    TMP DP  RH WIND       PRES   REMARKS
SIOUX FALLS    CLOUDY    58  34  40 SE16      29.95S
BROOKINGS      NOT AVBL
WATERTOWN      CLOUDY    54  34  46 SE14G23   29.93F
HURON          CLOUDY    58  32  37 SE15G26   29.86F
SISSETON         N/A     49  36  61 S9        29.96S
ABERDEEN       CLOUDY    54  35  48 E14       29.87S
MITCHELL       CLOUDY    59  34  39 SE22G28   29.87F
PIERRE         NOT AVBL
MOBRIDGE       CLOUDY    57  32  38 SE35G47   29.69F
RAPID CITY     CLOUDY    60  43  53 S12       29.60R
$$

  *****  SOME WEATHER IN NEARBY STATES *****

CITY           SKY/WX    TMP DP  RH WIND       PRES   REMARKS
GLASGOW MT     MOCLDY    62  34  35 E26G35    29.45F
GREAT FALLS MT LGT RAIN  43  43 100 NW3       29.55R
CHEYENNE WY    CLOUDY    56  36  47 SW7       29.72F
SCOTTSBLUFF NE CLOUDY    63  40  42 E10       29.61F
OMAHA NE       MOCLDY    62  32  32 E12       29.98S
DES MOINES IA  MOCLDY    58  32  37 E8        30.04F
DAVENPORT IA   CLEAR     43  29  57 N10       30.06R
CHICAGO IL     CLEAR     41  26  55 NE5       30.07S
EAU CLAIRE WI  CLEAR     36  24  62 NE5       30.10R
LA CROSSE WI   CLEAR     47  26  44 CALM      30.10R
$$

  *****  SOME NATIONAL WEATHER *****

CITY           SKY/WX    TMP DP  RH WIND       PRES   REMARKS
LA GUARDIA NY  PTCLDY    64  44  48 W13       29.50F
RALEIGH NC     PTCLDY    63  54  72 SW7       29.71S
ATLANTA GA     PTCLDY    62  59  90 W8        29.88F
NEW ORLEANS LA PTCLDY    68  63  84 N3        29.93S
OKLAHOMA CITY  PTCLDY    61  41  47 SE5       29.96R
ALBUQUERQUE NM MOCLDY    71  28  20 S12       29.88R
SALT LAKE CITY RAIN      42  42 100 N16G23    29.88R
LOS ANGELES CA CLEAR     61  48  62 W15       29.92R
BOISE ID       PTCLDY    44  33  65 W8        29.87R
SEATTLE WA     LGT RAIN  45  42  89 S8        29.89S
$$

*** WEATHER ACROSS MANITOBA...SASKATCHEWAN AND ONTARIO ***
                ***ONTARIO***

CITY           SKY/WX    TMP DP  RH WIND       PRES   REMARKS
GERALDTON      CLEAR     25  23  93 CALM      30.06S
THUNDER BAY    CLEAR     30  25  80 NE2       30.11R
SIOUX LOOKOUT  CLEAR     28  23  80 S2        30.06S
TORONTO        CLOUDY    41  34  75 NW18G29   29.71S
BIG TROUT LK   CLEAR     27  18  69 NE2       30.06R
PICKLE LAKE    NOT AVBL
DRYDEN         CLEAR     41  19  42 S7        30.06S
KENORA         CLEAR     39  21  48 SW3       30.07S
$$
                *** MANITOBA***

CITY           SKY/WX    TMP DP  RH WIND       PRES   REMARKS
BRANDON        PTCLDY    48  36  61 E10       29.95R
DAUPHIN        CLEAR     45  37  76 SE13      29.94F
ISLAND LAKE    MOCLDY    37  37 100 CALM      30.04S
PILOT MOUND      N/A     43  34  70 E13         N/A
THE PAS        CLEAR     41  28  60 SE7         N/A
THOMPSON       PTCLDY    36  30  80 NE5       30.05R
WINNIPEG       PTCLDY    43  30  61 E10       30.02S
LYNN LAKE      CLEAR     34  27  75 NE9       30.08R
CHURCHILL      CLOUDY    25  23  93 N10       30.18R WCI  15
GILLAM         PTCLDY    36  25  64 E8        30.07R
$$
                ***SASKATCHEWAN***

CITY           SKY/WX    TMP DP  RH WIND       PRES   REMARKS
ESTEVAN        CLOUDY    52  36  54 E17G23    29.74F
KINDERSLEY     CLOUDY    57  36  44 E28G35    29.49
LLOYDMINSTER   MOCLDY    52  39  62 E22G31    29.58S
PRINCE ALBERT  PTCLDY    46  34  61 E14G20    29.80
REGINA         CLOUDY    52  34  50 E24       29.71F



USA.gov is the U.S. government's official web portal to all federal, state and local government web resources and services.